Detroit Lakes, MN

9:53 AM CDT on July 20, 2017 (GMT -0500)
Detroit Lakes

Weather History for KDTL - April, 2013

Change the Weather History Date:

Thursday, April 18, 2013

  Actual Average Record
Temperature  
Mean Temperature 32 °F -  
Max Temperature 33 °F 57 °F 85 °F (1987)
Min Temperature 32 °F 31 °F 12 °F (1953)
Degree Days  
Heating Degree Days 32    
Moisture  
Dew Point 31 °F    
Average Humidity 93    
Maximum Humidity 100    
Minimum Humidity 70    
Precipitation  
Precipitation 0.03 in - - ()
Sea Level Pressure  
Sea Level Pressure 29.88 in    
Wind  
Wind Speed 9 mph (North)    
Max Wind Speed 22 mph    
Max Gust Speed 36 mph    
Visibility 7 miles    
Events Snow    
Averages and records for this station are not official NWS values.
T = Trace of Precipitation, MM = Missing Value Source: NWS Daily Summary

Daily Weather History Graph

Daily Weather History Graph

Search for Another Location

Airport or City:

Trip Planner

Search our weather history database for the weather conditions in past years. The results will help you decide how hot, cold, wet, or windy it might be!

Date:

Astronomy

Apr. 18, 2013 Rise Set
Actual Time 6:30 AM CDT 8:16 PM CDT
Civil Twilight 5:57 AM CDT 8:48 PM CDT
Nautical Twilight 5:18 AM CDT 9:28 PM CDT
Astronomical Twilight 4:35 AM CDT 10:11 PM CDT
Moon 12:38 PM CDT (4/18) 2:36 AM CDT (4/18)
Length of Visible Light 14h 50m
Length of Day
13h 46m
First Quarter, 52% of the Moon is Illuminated
Apr 18
First Quarter
Apr 25
Full
May 2
Last Quarter
May 9
New
May 17
First Quarter

Hourly Weather History & Observations

Time (CDT) Temp. Windchill Dew Point Humidity Pressure Visibility Wind Dir Wind Speed Gust Speed Precip Events Conditions
12:15 AM 32.0 °F 28.7 °F 32.0 °F 100% 30.06 in 5.0 mi North 3.5 mph - N/A Snow Light Snow
12:36 AM 32.0 °F - 32.0 °F 100% 30.07 in 2.5 mi Calm Calm - N/A Snow Light Snow
12:55 AM 32.0 °F - 32.0 °F 100% 30.06 in 3.0 mi Calm Calm - 0.01 in Snow Light Snow
1:16 AM 32.0 °F - 32.0 °F 100% 30.05 in 1.8 mi Calm Calm - N/A Snow Light Snow
1:35 AM 32.0 °F 26.4 °F 32.0 °F 100% 30.04 in 1.8 mi North 5.8 mph - 0.01 in Snow Light Snow
1:55 AM 32.0 °F 28.7 °F 32.0 °F 100% 30.02 in 4.0 mi North 3.5 mph - 0.01 in Snow Light Snow
2:16 AM 32.0 °F 28.7 °F 32.0 °F 100% 30.01 in 1.5 mi North 3.5 mph - 0.01 in Snow Light Snow
2:36 AM 32.0 °F - 32.0 °F 100% 30.00 in 4.0 mi Calm Calm - 0.01 in Snow Light Snow
2:55 AM 32.0 °F 22.5 °F 32.0 °F 100% 29.97 in 5.0 mi North 12.7 mph - 0.01 in Snow Light Snow
3:16 AM 32.0 °F 27.5 °F 32.0 °F 100% 29.98 in 5.0 mi North 4.6 mph - N/A Snow Light Snow
3:35 AM 32.0 °F 26.4 °F 32.0 °F 100% 29.97 in 7.0 mi North 5.8 mph - N/A Snow Light Snow
3:55 AM 32.0 °F 27.5 °F 32.0 °F 100% 29.97 in 10.0 mi North 4.6 mph - N/A   Overcast
4:16 AM 32.0 °F 26.4 °F 32.0 °F 100% 29.99 in 7.0 mi NNW 5.8 mph - N/A Snow Light Snow
4:35 AM 32.0 °F 25.6 °F 32.0 °F 100% 30.00 in 7.0 mi NNW 6.9 mph - N/A Snow Light Snow
4:55 AM 32.0 °F 23.6 °F 32.0 °F 100% 30.00 in 5.0 mi NNW 10.4 mph - N/A Snow Light Snow
5:16 AM 32.0 °F 25.6 °F 32.0 °F 100% 29.97 in 5.0 mi North 6.9 mph - N/A Snow Light Snow
5:35 AM 32.0 °F 27.5 °F 32.0 °F 100% 29.96 in 5.0 mi North 4.6 mph - N/A Snow Light Snow
5:55 AM 32.0 °F 24.2 °F 32.0 °F 100% 29.95 in 7.0 mi North 9.2 mph - N/A Snow Light Snow
6:16 AM 32.0 °F 24.2 °F 32.0 °F 100% 29.95 in 7.0 mi North 9.2 mph - N/A Snow Light Snow
6:35 AM 32.0 °F 23.0 °F 32.0 °F 100% 29.94 in 5.0 mi NNW 11.5 mph - N/A Snow Light Snow
6:55 AM 32.0 °F 22.1 °F 32.0 °F 100% 29.94 in 4.0 mi NNW 13.8 mph - N/A Snow Light Snow
7:16 AM 32.0 °F 22.1 °F 32.0 °F 100% 29.93 in 4.0 mi North 13.8 mph - N/A Snow Light Snow
7:35 AM 32.0 °F 22.5 °F 32.0 °F 100% 29.93 in 4.0 mi North 12.7 mph - N/A Snow Light Snow
7:56 AM 32.0 °F 24.2 °F 32.0 °F 100% 29.93 in 3.0 mi North 9.2 mph - N/A Snow Light Snow
8:16 AM 32.0 °F 24.2 °F 32.0 °F 100% 29.93 in 3.0 mi North 9.2 mph 17.3 mph N/A Snow Light Snow
8:35 AM 32.0 °F 25.6 °F 32.0 °F 100% 29.92 in 2.5 mi North 6.9 mph 18.4 mph N/A Snow Light Snow
8:56 AM 32.0 °F 23.0 °F 32.0 °F 100% 29.92 in 3.0 mi North 11.5 mph - N/A Snow Light Snow
9:15 AM 32.0 °F 22.5 °F 32.0 °F 100% 29.91 in 3.0 mi North 12.7 mph - N/A Snow Light Snow
9:36 AM 32.0 °F 23.6 °F 32.0 °F 100% 29.90 in 4.0 mi North 10.4 mph - N/A Snow Light Snow
9:55 AM 32.0 °F 24.8 °F 32.0 °F 100% 29.90 in 4.0 mi North 8.1 mph - N/A Snow Light Snow
10:16 AM 32.0 °F 24.2 °F 32.0 °F 100% 29.88 in 4.0 mi North 9.2 mph 16.1 mph N/A Snow Light Snow
10:35 AM 32.0 °F 22.5 °F 32.0 °F 100% 29.87 in 4.0 mi North 12.7 mph 18.4 mph N/A Snow Light Snow
10:55 AM 32.0 °F 24.2 °F 32.0 °F 100% 29.86 in 4.0 mi North 9.2 mph 18.4 mph N/A Snow Light Snow
11:15 AM 33.8 °F 25.3 °F 32.0 °F 93% 29.85 in 4.0 mi North 11.5 mph 19.6 mph N/A Snow Light Snow
11:35 AM 33.8 °F 25.3 °F 32.0 °F 93% 29.85 in 3.0 mi North 11.5 mph 18.4 mph N/A Snow Light Snow
11:56 AM 33.8 °F 25.8 °F 32.0 °F 93% 29.83 in 4.0 mi North 10.4 mph 17.3 mph N/A   Overcast
12:15 PM 33.8 °F 27.7 °F 32.0 °F 93% 29.83 in 5.0 mi North 6.9 mph 18.4 mph N/A   Mostly Cloudy
12:35 PM 33.8 °F 27.0 °F 32.0 °F 93% 29.84 in 10.0 mi North 8.1 mph 18.4 mph N/A   Mostly Cloudy
12:56 PM 33.8 °F 23.5 °F 32.0 °F 93% 29.84 in 7.0 mi North 16.1 mph 23.0 mph N/A   Mostly Cloudy
1:15 PM 33.8 °F 22.8 °F 32.0 °F 93% 29.83 in 10.0 mi North 18.4 mph 25.3 mph N/A   Mostly Cloudy
1:35 PM 33.8 °F 23.2 °F 32.0 °F 93% 29.83 in 10.0 mi North 17.3 mph 24.2 mph N/A   Mostly Cloudy
1:56 PM 33.8 °F 22.5 °F 32.0 °F 93% 29.83 in 7.0 mi NNW 19.6 mph 26.5 mph N/A Snow Light Snow
2:15 PM 33.8 °F 21.9 °F 32.0 °F 93% 29.82 in 3.0 mi North 21.9 mph 28.8 mph N/A Snow Light Snow
2:35 PM 33.8 °F 22.2 °F 32.0 °F 93% 29.81 in 3.0 mi North 20.7 mph 28.8 mph N/A Snow Light Snow
2:56 PM 33.8 °F 25.3 °F 32.0 °F 93% 29.80 in 5.0 mi North 11.5 mph 31.1 mph N/A Snow Light Snow
3:35 PM 33.8 °F 22.5 °F 30.2 °F 87% 29.81 in 10.0 mi North 19.6 mph 28.8 mph N/A   Scattered Clouds
4:15 PM 33.8 °F 23.5 °F 26.6 °F 75% 29.78 in 10.0 mi North 16.1 mph 35.7 mph N/A   Scattered Clouds
4:35 PM 33.8 °F 21.9 °F 26.6 °F 75% 29.78 in 10.0 mi North 21.9 mph 33.4 mph N/A   Mostly Cloudy
4:56 PM 33.8 °F 25.3 °F 26.6 °F 75% 29.78 in 10.0 mi North 11.5 mph 28.8 mph N/A   Overcast
5:15 PM 33.8 °F 25.8 °F 26.6 °F 75% 29.79 in 10.0 mi North 10.4 mph 25.3 mph N/A   Overcast
5:35 PM 33.8 °F 24.8 °F 26.6 °F 75% 29.79 in 10.0 mi North 12.7 mph 24.2 mph N/A   Overcast
5:56 PM 33.8 °F 23.9 °F 26.6 °F 75% 29.79 in 10.0 mi North 15.0 mph 25.3 mph N/A   Mostly Cloudy
6:15 PM 33.8 °F 24.8 °F 24.8 °F 70% 29.78 in 10.0 mi North 12.7 mph 27.6 mph N/A   Scattered Clouds
6:35 PM 33.8 °F 26.4 °F 26.6 °F 75% 29.78 in 10.0 mi North 9.2 mph 23.0 mph N/A   Clear
6:56 PM 33.8 °F 23.2 °F 28.4 °F 81% 29.78 in 10.0 mi NNW 17.3 mph 21.9 mph N/A   Clear
7:15 PM 33.8 °F 22.5 °F 30.2 °F 87% 29.78 in 10.0 mi North 19.6 mph - N/A   Clear
7:35 PM 32.0 °F 19.8 °F 30.2 °F 93% 29.78 in 10.0 mi NNW 20.7 mph 24.2 mph N/A   Clear
7:56 PM 32.0 °F 19.5 °F 30.2 °F 93% 29.77 in 10.0 mi NNW 21.9 mph 28.8 mph N/A   Clear
8:15 PM 32.0 °F 19.5 °F 28.4 °F 87% 29.77 in 10.0 mi NNW 21.9 mph 28.8 mph N/A   Clear
8:35 PM 32.0 °F 20.1 °F 28.4 °F 87% 29.77 in 10.0 mi NNW 19.6 mph 26.5 mph N/A   Clear
8:56 PM 32.0 °F 19.5 °F 28.4 °F 87% 29.77 in 10.0 mi NNW 21.9 mph 31.1 mph N/A   Clear
9:16 PM 32.0 °F 19.8 °F 28.4 °F 87% 29.77 in 10.0 mi NNW 20.7 mph 25.3 mph N/A   Clear
9:35 PM 32.0 °F 19.8 °F 28.4 °F 87% 29.77 in 10.0 mi NNW 20.7 mph 29.9 mph N/A   Clear
9:56 PM 32.0 °F 19.5 °F 28.4 °F 87% 29.77 in 10.0 mi NNW 21.9 mph 28.8 mph N/A   Clear
10:36 PM 32.0 °F 20.5 °F 26.6 °F 80% 29.78 in 10.0 mi North 18.4 mph 25.3 mph N/A   Clear
10:56 PM 32.0 °F 22.1 °F 28.4 °F 87% 29.78 in 10.0 mi North 13.8 mph 25.3 mph N/A   Scattered Clouds
11:15 PM 32.0 °F 21.6 °F 28.4 °F 87% 29.77 in 10.0 mi NNW 15.0 mph - N/A   Scattered Clouds
11:36 PM 32.0 °F 21.2 °F 28.4 °F 87% 29.77 in 10.0 mi NNW 16.1 mph 21.9 mph N/A   Clear
11:56 PM 32.0 °F 21.2 °F 28.4 °F 87% 29.77 in 10.0 mi NNW 16.1 mph 20.7 mph N/A   Clear